Niagara Falls, NY

8:52 AM EST on December 13, 2019 (GMT -0500)
Niagara Falls International

Weather History for KIAG - October, 2019

Change the Weather History Date:

Tuesday, October 22, 2019

  Actual Average Record
Temperature  
Mean Temperature 57 °F -  
Max Temperature 63 °F 54 °F 79 °F (2017)
Min Temperature 51 °F 38 °F 32 °F (1997)
Degree Days  
Heating Degree Days 8    
Growing Degree Days 7 (Base 50)    
Moisture  
Dew Point 51 °F    
Average Humidity 82    
Maximum Humidity 96    
Minimum Humidity 56    
Precipitation  
Precipitation 0.25 in - - ()
Sea Level Pressure  
Sea Level Pressure 29.75 in    
Wind  
Wind Speed 10 mph (South)    
Max Wind Speed 14 mph    
Max Gust Speed -    
Visibility 9 miles    
Events Rain    
Averages and records for this station are not official NWS values.
T = Trace of Precipitation, MM = Missing Value Source: NWS Daily Summary

Daily Weather History Graph

Daily Weather History Graph

Search for Another Location

Airport or City:

Astronomy

Oct. 22, 2019 Rise Set
Actual Time 7:37 AM EDT 6:22 PM EDT
Civil Twilight 7:08 AM EDT 6:51 PM EDT
Nautical Twilight 6:35 AM EDT 7:24 PM EDT
Astronomical Twilight 6:02 AM EDT 7:57 PM EDT
Moon 12:32 AM EDT (10/22) 3:42 PM EDT (10/22)
Length of Visible Light 11h 42m
Length of Day
10h 44m
Last Quarter, 37% of the Moon is Illuminated
Oct 22
Last Quarter
Oct 27
New
Nov 4
First Quarter
Nov 12
Full
Nov 19
Last Quarter

Hourly Weather History & Observations

Time (EDT) Temp. Dew Point Humidity Pressure Visibility Wind Dir Wind Speed Gust Speed Precip Events Conditions
12:53 AM 62.1 °F 46.0 °F 56% 29.77 in 10.0 mi South 10.4 mph - N/A   Partly Cloudy
1:53 AM 61.0 °F 48.0 °F 62% 29.75 in 10.0 mi SSE 10.4 mph - 0.00 in   Mostly Cloudy
2:53 AM 60.1 °F 51.1 °F 72% 29.77 in 10.0 mi South 10.4 mph - 0.02 in   Overcast
3:53 AM 61.0 °F 51.1 °F 70% 29.76 in 10.0 mi South 10.4 mph - 0.00 in Rain Light Rain
4:53 AM 60.1 °F 52.0 °F 75% 29.75 in 10.0 mi South 9.2 mph - 0.01 in   Overcast
5:43 AM 57.9 °F 53.1 °F 84% 29.78 in 6.0 mi SSW 11.5 mph - 0.02 in Rain Light Rain
5:53 AM 57.0 °F 53.1 °F 87% 29.78 in 6.0 mi South 10.4 mph - 0.02 in Rain Light Rain
6:19 AM 55.9 °F 54.0 °F 93% 29.77 in 6.0 mi South 10.4 mph - 0.01 in Rain Light Rain
6:53 AM 55.9 °F 54.0 °F 93% 29.76 in 10.0 mi SSE 10.4 mph - 0.01 in   Overcast
7:09 AM 55.9 °F 54.0 °F 93% 29.75 in 10.0 mi South 10.4 mph - N/A   Overcast
7:45 AM 55.9 °F 54.0 °F 93% 29.73 in 10.0 mi SSE 10.4 mph - 0.00 in Rain Light Rain
7:53 AM 55.9 °F 54.0 °F 93% 29.74 in 10.0 mi SSE 9.2 mph - 0.00 in Rain Light Rain
8:53 AM 57.0 °F 54.0 °F 89% 29.77 in 3.0 mi SSW 10.4 mph - 0.00 in Rain Light Rain
9:15 AM 57.0 °F 55.0 °F 93% 29.77 in 2.0 mi SSW 12.7 mph - 0.04 in Rain Rain
9:53 AM 57.0 °F 55.9 °F 96% 29.77 in 8.0 mi South 8.1 mph - 0.12 in Rain Light Rain
11:53 AM 57.9 °F 55.9 °F 93% 29.76 in 10.0 mi South 10.4 mph - 0.02 in Rain Light Rain
12:53 PM 59.0 °F 55.9 °F 90% 29.69 in 10.0 mi SSE 12.7 mph - 0.00 in Rain Light Rain
1:53 PM 59.0 °F 53.1 °F 81% 29.70 in 10.0 mi South 12.7 mph - 0.01 in Rain Light Rain
2:53 PM 57.9 °F 53.1 °F 84% 29.69 in 10.0 mi South 11.5 mph - 0.00 in   Overcast
3:53 PM 57.9 °F 52.0 °F 81% 29.69 in 10.0 mi South 13.8 mph - N/A   Overcast
4:53 PM 55.9 °F 46.9 °F 72% 29.70 in 10.0 mi SSW 10.4 mph - N/A   Mostly Cloudy
5:53 PM 55.0 °F 48.0 °F 77% 29.68 in 10.0 mi South 4.6 mph - N/A   Partly Cloudy
6:53 PM 53.1 °F 48.9 °F 86% 29.72 in 5.0 mi West 6.9 mph - 0.04 in Rain Light Rain
7:53 PM 53.1 °F 50.0 °F 89% 29.76 in 10.0 mi SW 8.1 mph - 0.00 in   Overcast
8:53 PM 53.1 °F 48.0 °F 83% 29.77 in 10.0 mi SSW 9.2 mph - N/A   Overcast
9:53 PM 53.1 °F 44.1 °F 71% 29.78 in 10.0 mi SW 9.2 mph - N/A   Overcast
10:53 PM 52.0 °F 43.0 °F 71% 29.79 in 10.0 mi West 11.5 mph - N/A   Overcast
11:53 PM 51.1 °F 43.0 °F 74% 29.79 in 10.0 mi SW 8.1 mph - N/A   Overcast